Voltar ao catálogo

STARLINK-37550

AtivoComunicaçõesVLEO
NORAD 100277·PAYLOAD·🇺🇸 United States

Lançado Aug 11, 2026 de Cape Canaveral Space Force Station

Loading…

Próximas Passagens (próximas 24 horas)

TLE

EnvelhecendoSource: Space-Track

Época: Sep 12, 2026, 14:47 UTC

1 A0277U 26183F   26255.61656217 -.00748338  00000-0 -60756-2 0  9991
2 A0277  53.1568 296.3800 0001293  65.0674 295.0480 15.72195858  5067

Acompanhe STARLINK-37550 em tempo real com AllMySat

Download on the App Store